Location: Unspecified
(0.0000°N, 0.0000°E)
Time: 22:37:55
(UTC+00:00)

Envisat - Pass Details

Date: 21 April 2018
Orbit: 764 x 766 km, 98.2° (Epoch: 24 April)

Event Time Altitude Azimuth Distance (km) Brightness Sun altitude
Exits shadow 20:40:16 21° 288° (WNW) 1,662 5.2 -39.3°
Drops below altitude 10° 20:42:39 10° 313° (NW) 2,293 6.0 -39.9°
Sets 20:45:18 0° 326° (NW) 3,216 6.8 -40.5°
